Weather History for Lubbock, TX

Change the Weather History Date:

Thursday, September 12, 2013

  Actual Average Record
Temperature  
Mean Temperature 76 °F 73 °F  
Max Temperature 88 °F 86 °F 100 °F (1930)
Min Temperature 63 °F 60 °F 44 °F (1959)
Degree Days  
Heating Degree Days 0 0  
Month to date heating degree days 0 0  
Since 1 July heating degree days 0 0  
Cooling Degree Days 11 8  
Month to date cooling degree days 165 118  
Year to date cooling degree days 1893 1644  
Growing Degree Days 26 (Base 50)    
Moisture  
Dew Point 57 °F    
Average Humidity 60    
Maximum Humidity 84    
Minimum Humidity 35    
Precipitation  
Precipitation 0.00 in 0.08 in 2.35 in (1989)
Month to date precipitation T 1.03  
Year to date precipitation 9.78 14.10  
Snow  
Snow 0.00 in 0.00 in - ()
Month to date snowfall 0.0 0.0  
Since 1 July snowfall 0.0 0.0  
Since 1 September snowfall 0.0 0.0  
Snow Depth 0.00 in    
Sea Level Pressure  
Sea Level Pressure 30.00 in    
Wind  
Wind Speed 8 mph (SE)    
Max Wind Speed 20 mph    
Max Gust Speed 24 mph    
Visibility 10 miles    
Events      
T = Trace of Precipitation, MM = Missing Value Source: NWS Daily Summary

Daily Weather History Graph

Daily Weather History Graph

Search for Another Location

Airport:

Trip Planner

Search our weather history database for the weather conditions in past years. The results will help you decide how hot, cold, wet, or windy it might be!

Date:

Astronomy

Sep. 12, 2013 Rise Set
Actual Time 7:28 AM CDT 7:57 PM CDT
Civil Twilight 7:03 AM CDT 8:22 PM CDT
Nautical Twilight 6:34 AM CDT 8:51 PM CDT
Astronomical Twilight 6:04 AM CDT 9:21 PM CDT
Moon 2:39 PM CDT (9/12) 12:15 AM CDT (9/12)
Length of Visible Light 13h 18m
Length of Day
12h 28m
Waxing Crescent, 50% of the Moon is Illuminated
Sep 12
Waxing Crescent
Sep 12
First Quarter
Sep 19
Full
Sep 26
Last Quarter
Oct 4
New

Hourly Weather History & Observations

Time (CDT) Temp. Heat Index Dew Point Humidity Pressure Visibility Wind Dir Wind Speed Gust Speed Precip Events Conditions
12:53 AM 73.0 °F - 59.0 °F 61% 30.00 in 10.0 mi SE 8.1 mph - N/A   Mostly Cloudy
1:53 AM 70.0 °F - 59.0 °F 68% 30.00 in 10.0 mi ESE 6.9 mph - N/A   Mostly Cloudy
2:53 AM 68.0 °F - 59.0 °F 73% 30.00 in 10.0 mi ESE 5.8 mph - N/A   Mostly Cloudy
3:53 AM 66.9 °F - 57.9 °F 73% 29.99 in 10.0 mi ESE 5.8 mph - N/A   Scattered Clouds
4:53 AM 66.0 °F - 59.0 °F 78% 30.00 in 10.0 mi SE 4.6 mph - N/A   Mostly Cloudy
5:53 AM 66.0 °F - 59.0 °F 78% 30.00 in 10.0 mi SE 4.6 mph - N/A   Scattered Clouds
6:53 AM 64.0 °F - 57.9 °F 80% 30.02 in 10.0 mi ESE 4.6 mph - N/A   Mostly Cloudy
7:53 AM 63.0 °F - 57.9 °F 84% 30.04 in 10.0 mi Calm Calm - N/A   Scattered Clouds
8:53 AM 70.0 °F - 60.1 °F 71% 30.05 in 10.0 mi SSE 5.8 mph - N/A   Scattered Clouds
9:53 AM 75.0 °F - 62.1 °F 64% 30.06 in 10.0 mi South 11.5 mph - N/A   Scattered Clouds
10:53 AM 79.0 °F - 61.0 °F 54% 30.06 in 10.0 mi South 11.5 mph - N/A   Mostly Cloudy
11:53 AM 80.1 °F 80.7 °F 59.0 °F 48% 30.05 in 10.0 mi South 12.7 mph - N/A   Mostly Cloudy
12:53 PM 81.0 °F 81.3 °F 59.0 °F 47% 30.04 in 10.0 mi South 6.9 mph - N/A   Overcast
1:53 PM 82.9 °F 82.4 °F 57.0 °F 41% 30.02 in 10.0 mi SE 9.2 mph - N/A   Overcast
2:53 PM 86.0 °F 84.7 °F 55.9 °F 36% 29.99 in 10.0 mi South 11.5 mph 20.7 mph N/A   Mostly Cloudy
3:53 PM 84.9 °F 83.7 °F 55.9 °F 37% 29.96 in 10.0 mi SSE 16.1 mph 21.9 mph N/A   Mostly Cloudy
4:53 PM 84.9 °F 83.6 °F 55.0 °F 36% 29.94 in 10.0 mi SE 13.8 mph 21.9 mph N/A   Mostly Cloudy
5:53 PM 84.0 °F 83.0 °F 55.9 °F 38% 29.94 in 10.0 mi ESE 17.3 mph - N/A   Mostly Cloudy
6:53 PM 84.0 °F 82.9 °F 55.0 °F 37% 29.95 in 10.0 mi ESE 10.4 mph - 0.00 in   Mostly Cloudy
7:53 PM 81.0 °F 80.5 °F 54.0 °F 39% 29.96 in 10.0 mi ESE 5.8 mph - N/A   Mostly Cloudy
8:53 PM 77.0 °F - 54.0 °F 45% 29.96 in 10.0 mi ESE 5.8 mph - N/A   Mostly Cloudy
9:53 PM 73.9 °F - 54.0 °F 50% 29.98 in 10.0 mi ESE 5.8 mph - N/A   Mostly Cloudy
10:53 PM 73.9 °F - 55.0 °F 52% 29.98 in 10.0 mi ESE 6.9 mph - N/A   Mostly Cloudy
11:53 PM 73.0 °F - 55.9 °F 55% 29.97 in 10.0 mi ESE 6.9 mph - N/A   Mostly Cloudy